Weather in Miglino

Russia / Yaroslavl Oblast     57°41′34″N   39°08′11″E
temp.,
°C
wind,
m/s
gust,
m/s
humid.,
%
clouds,
%
prec.,
mm/h
press.,
hPa
HPBL,
m
26 july, mon
mon2600:00+16wsw2352100 0.0 102175
03:00+13w24698 0.0 102284
06:00+14wsw247231 0.0 1022105
09:00+17wsw2560100 0.0 1022253
12:00+23w344287 0.0 10221266
15:00+23nw2448100 0.0 1020622
18:00+23w234678 0.0 10201029
21:00+19wsw235523 0.0 102061
27 july, tue
tue2700:00+16w226919 0.0 102114
03:00+15nnw22743 0.0 102132
06:00+16nw127959 0.0 102271
09:00+23w125328 0.0 1021636
12:00+26wnw25395 0.0 10201898
15:00+27nw353855 0.0 10181776
18:00+26nnw24435 0.0 10171149
21:00+18e247957 0.3 101894
28 july, wed
wed2800:00+15s12925 0.1 101830
03:00+14ne119025 0.1 101710
06:00+16se11852 0.0 101742
09:00+23s12585 0.0 1015541
12:00+27sw23425 0.0 10131579
15:00+27sw234182 0.0 10111382
18:00+26sw464596 0.0 1010947
21:00+18wnw41182100 0.2 1010430
29 july, thu
thu2900:00+15ssw239660 0.0 100949
03:00+15sse269795 0.0 1007164
06:00+16sse269498 0.0 1006281
09:00+17ese249799 3.3 1005310
12:00+18e1395100 0.3 1005257
15:00+18sw2396100 0.6 1004207
18:00+18w379527 0.5 1004481
21:00+17sw27971 0.6 1004156
30 july, fri
fri3000:00+16wsw310970 0.0 1004229
03:00+15wsw413950 0.0 1005319
06:00+15w310942 0.0 1006320
09:00+21w58595 0.0 1007988
12:00+25w69385 0.0 10062108
15:00+27w693354 0.0 10062747
18:00+26w383915 0.0 10061735
21:00+21wsw1155100 0.0 100712